Volver al catálogo

STARLINK-31957

ActivoComunicacionesVLEO
NORAD 59926·PAYLOAD·🇺🇸 United States

Lanzado Jun 1, 2024 desde Cape Canaveral Space Force Station

Loading…

Próximos Pases (próximas 24 horas)

TLE

ActualizadoSource: CelesTrak SupGP

Época: Sep 14, 2026, 20:53 UTC

1 59926C 24106E   26257.87062500 -.00011619  00000+0 -42079-3 0  2575
2 59926  43.0037 343.7597 0001724 269.8447 315.1508 15.27586732    12

Sigue STARLINK-31957 en tiempo real con AllMySat

Download on the App Store